Location: Hatley
(52.1333°N, 0.1333°W)
Time: 01:10:13
(UTC+00:00)

Daily predictions for brighter satellites

Satellite Brightness Start Highest point End
(mag) Time Altitude Azimuth Time Altitude Azimuth Time Altitude Azimuth
SL-4 R/B 3.4 00:01:50 11° W 00:01:50 11° W 00:02:20 10° WNW
Lacrosse 5 4.0 00:01:35 10° WSW 00:02:55 11° WSW 00:03:12 11° WSW
ATLAS CENTAUR R/B 2.5 00:01:12 10° NW 00:03:01 31° NNE 00:05:47 10° E
STARLINK-1226 2.9 00:00:13 10° W 00:03:21 80° NNE 00:06:27 10° E
STARLINK-1215 2.9 00:01:09 10° W 00:04:17 80° N 00:07:24 10° E
STARLINK-1225 3.5 00:00:28 10° WSW 00:04:38 81° SSE 00:08:47 10° ENE
STARLINK-1217 2.9 00:02:55 10° W 00:06:03 81° N 00:09:10 10° E
Cosmos 292 Rocket 3.7 00:03:39 28° SSW 00:06:12 86° ESE 00:11:06 10° NNE
STARLINK-1229 2.9 00:03:50 10° W 00:06:58 81° N 00:10:06 10° E
STARLINK-1271 3.7 00:03:13 10° W 00:07:23 77° N 00:11:33 10° E
STARLINK-1104 4.1 00:03:48 10° W 00:07:38 37° SSW 00:08:13 35° SSW
STARLINK-1270 2.9 00:04:42 10° W 00:07:50 82° N 00:10:58 10° E
S3M 4.2 00:02:59 10° NNW 00:08:59 58° W 00:12:36 25° SSW
STARLINK-1230 3.5 00:05:26 10° WSW 00:09:35 84° SSE 00:13:45 10° ENE
STARLINK-1189 2.8 00:06:32 10° W 00:09:40 83° N 00:12:49 10° E
Cosmos 1726 2.2 00:06:00 10° NNW 00:09:40 65° W 00:10:54 38° SSW
STARLINK-1188 2.8 00:07:25 10° WNW 00:10:33 83° N 00:13:42 10° E
Cosmos 2058 Rocket 4.3 00:06:36 10° N 00:10:40 35° ENE 00:13:46 16° SE
STARLINK-1235 2.7 00:08:08 10° WNW 00:11:14 89° N 00:14:21 10° ESE
Cosmos 1655 Rocket 4.1 00:07:30 24° SSW 00:11:25 76° WNW 00:17:42 10° N
STARLINK-1187 2.8 00:08:33 10° WNW 00:11:40 86° NNE 00:14:46 10° E
GEOS 3 Rocket 3.6 00:07:39 13° SE 00:12:19 88° NE 00:17:40 10° NW
STARLINK-1154 3.7 00:08:13 10° W 00:12:23 78° N 00:16:32 10° E
SL-27 R/B 3.9 00:09:28 10° NW 00:12:30 25° WSW 00:13:10 24° WSW
Meteor 1-29 4.4 00:09:37 10° NE 00:12:32 26° E 00:13:32 22° SE
STARLINK-1144 4.2 00:08:48 10° W 00:12:35 35° SSW 00:13:00 34° SSW
STARLINK-1191 2.8 00:09:55 10° WNW 00:13:02 84° NNE 00:16:08 10° E
Cosmos 2228 3.2 00:09:06 10° N 00:13:21 63° ENE 00:15:32 27° SSE
SJ 16-02 4.1 00:11:07 10° N 00:13:40 15° NE 00:16:13 10° E
STARLINK-1221 2.8 00:10:47 10° WNW 00:13:54 84° NNE 00:17:00 10° E
COSMOS 2455 3.8 00:11:39 22° SSE 00:14:27 33° ESE 00:19:46 10° NE
STARLINK-1243 3.5 00:10:25 10° WSW 00:14:34 86° SSE 00:18:44 10° ENE
STARLINK-1222 2.8 00:11:41 10° WNW 00:14:47 85° N 00:17:54 10° E
Cosmos 2263 4.2 00:12:25 26° SSW 00:15:39 75° ESE 00:21:16 10° NNE
STARLINK-1214 2.8 00:12:35 10° WNW 00:15:42 85° N 00:18:49 10° E
Meteor 2-15 Rocket 4.4 00:10:47 10° N 00:16:59 87° E 00:20:55 24° S
STARLINK-1197 3.7 00:13:11 10° W 00:17:22 78° N 00:21:31 10° E
STARLINK-1103 4.3 00:13:48 10° W 00:17:32 33° SW 00:17:46 32° SSW
Cosmos 1953 2.8 00:14:05 10° NNW 00:17:58 49° W 00:19:26 32° SSW
STARLINK-1236 3.5 00:15:23 10° WSW 00:19:33 88° SSE 00:23:43 10° ENE
Cosmos 1340 Rocket 3.0 00:15:35 10° NNW 00:19:34 61° W 00:21:08 34° SSW
STARLINK-1198 3.7 00:18:09 10° W 00:22:18 78° N 00:26:28 10° E
STARLINK-1101 4.4 00:18:48 10° W 00:22:29 31° SW 00:22:33 31° SSW
Cosmos 1300 4.2 00:19:04 10° N 00:22:29 30° ENE 00:25:04 15° SE
Cosmos 1271 Rocket 3.6 00:21:40 24° SW 00:23:31 40° WNW 00:27:13 10° N
Cosmos 1461 4.2 00:20:01 10° WSW 00:24:01 39° NW 00:28:13 10° NE
BREEZE M DEB (TANK) 4.4 00:26:49 12° ESE 00:26:49 12° ESE 00:27:07 10° ESE
COSMOS 2487 2.3 00:22:35 10° NNW 00:26:05 85° WSW 00:27:18 38° SSE
Cosmos 1833 4.4 00:21:16 10° NW 00:26:46 54° WSW 00:29:45 26° S
STARLINK-1199 3.7 00:23:10 10° W 00:27:20 79° N 00:31:30 10° E
Cosmos 1992 Rocket 3.9 00:25:15 27° SSW 00:28:11 87° ESE 00:33:26 10° NNE
STARLINK-1269 3.6 00:25:20 10° WSW 00:29:30 88° NNW 00:33:40 10° ENE
Cosmos 1707 3.8 00:29:05 23° SW 00:30:58 37° WNW 00:34:38 10° N
STARLINK-1210 3.7 00:28:08 10° W 00:32:18 80° N 00:36:28 10° E
STARLINK-1200 3.6 00:30:20 10° W 00:34:30 86° N 00:38:40 10° E
Cosmos 1626 3.4 00:34:31 21° SE 00:36:12 31° E 00:39:32 10° NNE
Cosmos 1606 Rocket 3.5 00:32:25 10° NNW 00:36:45 76° W 00:38:48 30° S
Cosmos 1656 Rocket 3.7 00:33:51 25° SSW 00:37:12 79° ESE 00:42:48 10° NNE
STARLINK-1219 3.7 00:33:07 10° W 00:37:17 81° N 00:41:27 10° E
In-Cosmos 22 4.2 00:35:37 25° SSW 00:38:43 71° WNW 00:44:02 10° N
STARLINK-1192 3.6 00:35:19 10° W 00:39:29 84° N 00:43:39 10° E
FALCON 9 R/B 4.1 00:38:25 21° S 00:40:35 23° SSE 00:51:38 10° ESE
EO 1 Delta rocket 4.5 00:34:33 10° N 00:41:19 76° WNW 00:44:41 25° SSW
STARLINK-1211 3.6 00:38:05 10° W 00:42:15 82° N 00:46:25 10° E
CZ-4 R/B 3.8 00:37:52 10° NNE 00:42:46 88° WNW 00:45:23 27° SSW
STARLINK-1244 3.6 00:40:17 10° W 00:44:27 83° N 00:48:37 10° E
Cosmos 2297 Rocket 3.5 00:40:58 10° NNW 00:46:16 39° NE 00:51:34 10° ESE
APEX 4.4 00:42:04 20° SW 00:46:48 79° WNW 00:52:16 10° NNE
STARLINK-1245 3.6 00:43:05 10° W 00:47:15 83° N 00:51:25 10° E
ERBS 4.0 00:44:10 10° WNW 00:47:16 35° N 00:50:23 10° ENE
Cosmos 2292 Rocket 4.0 00:45:34 24° SW 00:47:45 44° WNW 00:51:12 10° N
STARLINK-1138 3.7 00:45:17 10° W 00:49:26 82° N 00:53:36 10° E
NOSS 7 (A) 4.4 00:48:54 41° SW 00:49:48 82° SE 00:52:45 10° NE
SL-4 R/B 3.3 00:49:12 26° S 00:50:29 30° SE 00:54:36 10° E
NOSS 5 (C) 4.2 00:48:00 10° NW 00:51:05 75° SW 00:53:30 20° SE
PSLV R/B 3.7 00:46:45 10° NNE 00:51:26 81° WNW 00:53:53 27° SSW
STARLINK-1203 3.7 00:47:51 10° W 00:52:05 81° N 00:56:18 10° E
STARLINK-1233 3.6 00:48:04 10° W 00:52:14 85° N 00:56:24 10° E
Cosmos 1437 4.4 00:52:48 18° SE 00:53:59 23° E 00:56:25 10° NE
Aureole 3 4.3 00:50:43 10° NNW 00:54:01 28° W 00:55:01 24° WSW
STARLINK-1143 3.7 00:50:16 10° W 00:54:25 81° N 00:58:35 10° E
Cosmos 1674 2.8 00:53:21 31° SSW 00:54:57 62° WNW 00:58:42 10° N
STARLINK-1204 3.6 00:53:03 10° W 00:57:14 86° N 01:01:23 10° E
Cosmos 1777 Rocket 3.9 00:52:54 10° NNW 00:58:08 78° WSW 01:01:54 19° SSE
Timation 2 Rocket 3.9 00:51:53 10° NNW 00:58:22 88° WSW 01:04:30 10° SSE
ATLAS CENTAUR R/B 2.0 00:56:57 27° S 00:58:45 42° SE 01:02:41 10° NE
STARLINK-1241 3.7 00:55:15 10° W 00:59:24 80° N 01:03:34 10° E
NOSS 3-4 (A) 3.4 00:57:31 22° SSW 01:01:33 74° SE 01:08:00 10° NE
NOSS 3-4 (C) 3.4 00:57:37 22° SSW 01:01:39 74° SE 01:08:06 10° NE
STARLINK-1238 3.6 00:58:01 10° WNW 01:02:11 88° NNE 01:06:21 10° ESE
SL-16 R/B 3.0 00:56:25 10° SE 01:02:29 62° ENE 01:08:34 10° NNW
Spot 1 4.3 01:00:53 23° S 01:03:50 80° WSW 01:08:46 10° NNW
STARLINK-1239 3.7 01:00:13 10° W 01:04:23 79° N 01:08:33 10° E
Cosmos 1455 4.5 01:01:53 10° NNE 01:04:47 21° ENE 01:07:40 10° ESE
ATLAS 3B R/B 2.7 00:58:48 10° NW 01:05:28 62° SW 01:12:21 10° SSE
STARLINK-1201 3.6 01:03:01 10° WNW 01:07:11 90° S 01:11:21 10° ESE
CENTAUR R/B 3.7 01:01:42 10° NW 01:09:02 40° WSW 01:14:47 18° S
STARLINK-1240 3.7 01:05:13 10° W 01:09:23 78° N 01:13:32 10° E
STARLINK-1206 3.5 01:07:59 10° WNW 01:12:10 88° SSW 01:16:19 10° ESE
Cosmos 1244 Rocket 4.5 01:07:54 22° SSW 01:12:10 85° W 01:18:24 10° N
BREEZE-M DEB (TANK) 2.4 01:12:38 26° SE 01:12:38 26° SE 01:14:19 10° E
Cosmos 1908 4.4 01:10:28 10° NNW 01:13:46 28° W 01:15:09 22° SW
Cosmos 1867 4.2 01:08:51 10° NW 01:13:52 38° WSW 01:16:44 22° S
STARLINK-1216 3.7 01:10:12 10° W 01:14:22 78° N 01:18:31 10° E
Meteor 2-21 Rocket 4.5 01:11:40 21° S 01:16:00 82° E 01:22:13 10° NNE
STARLINK-1205 3.5 01:12:58 10° WNW 01:17:08 85° SSW 01:21:18 10° ESE
Cosmos 1892 Rocket 3.6 01:14:51 25° SSW 01:17:20 70° WNW 01:21:45 10° N
Cosmos 1745 Rocket 4.3 01:12:45 17° SSE 01:17:32 60° E 01:23:34 10° NNE
STARLINK-1237 3.7 01:15:12 10° W 01:19:21 78° N 01:23:31 10° E
RESURS DK-1 3.0 01:19:17 23° S 01:21:28 45° ESE 01:25:26 10° NE
Cosmos 2227 Rocket 2.9 01:16:27 10° NNW 01:22:04 56° NE 01:27:38 10° SE
STARLINK-1218 3.5 01:17:56 10° WNW 01:22:06 83° SSW 01:26:15 10° ESE
Cosmos 1356 Rocket 3.5 01:18:30 10° N 01:22:38 79° ENE 01:25:49 17° SSE
STARLINK-1202 3.7 01:20:11 10° W 01:24:21 77° N 01:28:31 10° E
Cosmos 1726 Rocket 4.5 01:20:51 10° NNW 01:24:43 33° W 01:26:45 22° SW
Meteor 1-24 Rocket 3.6 01:22:03 22° SSW 01:25:36 83° WNW 01:31:04 10° NNE
CZ-2D R/B 2.8 01:21:01 10° NNE 01:26:08 47° E 01:30:15 15° S
Cosmos 2369 Rocket 3.5 01:21:18 10° WSW 01:26:26 34° NW 01:31:34 10° NNE
Helios 1B rocket 3.5 01:22:49 10° N 01:26:37 35° WNW 01:29:11 18° WSW
STARLINK-1254 3.5 01:22:56 10° WNW 01:27:06 80° SSW 01:31:14 10° ESE
ADEOS II 4.0 01:24:22 10° NE 01:28:30 23° E 01:32:36 10° SE
ATLAS 2AS CENTAUR R/B 3.1 01:23:17 14° SW 01:30:28 81° NW 01:38:23 10° NE
STARLINK-1231 3.5 01:27:56 10° WNW 01:32:05 77° SSW 01:36:14 10° ESE
STARLINK-1228 3.6 01:30:38 10° W 01:33:43 35° SSW 01:36:47 10° SE
CZ-4C R/B 3.5 01:30:47 19° S 01:33:48 78° WSW 01:38:11 10° NNW
STARLINK-1246 3.7 01:30:09 10° W 01:34:19 78° N 01:38:28 10° E
STARLINK-1234 3.5 01:32:05 10° W 01:34:57 33° SSW 01:37:02 15° SSE
Resurs 1-4 Rocket 2.5 01:30:43 10° NNE 01:35:56 58° E 01:40:11 16° S
STARLINK-1212 3.2 01:33:24 10° W 01:36:21 40° SSW 01:39:17 10° SE
STARLINK-1105 3.2 01:33:53 10° W 01:36:49 39° SSW 01:39:43 10° SE
DELTA 2 DEB (DPAF) 4.4 01:34:10 21° S 01:36:59 53° W 01:41:22 10° NNW
STARLINK-1232 3.5 01:32:55 10° WNW 01:37:04 75° SSW 01:41:12 10° ESE
STARLINK-1209 3.6 01:34:21 10° W 01:37:12 31° SSW 01:38:42 20° SSE
Cosmos 1943 Rocket 4.0 01:32:43 10° W 01:37:15 25° NW 01:41:51 10° NNE
STARLINK-1247 3.3 01:34:47 10° W 01:37:44 39° SSW 01:40:41 10° SE
STARLINK-1227 3.3 01:35:15 10° W 01:38:11 39° SSW 01:41:05 10° SE
STARLINK-1226 3.3 01:36:06 10° W 01:39:02 38° SSW 01:41:58 10° SE
Meteor 2-5 Rocket 4.1 01:35:17 19° SW 01:39:10 53° WNW 01:44:39 10° N
STARLINK-1224 3.7 01:35:08 10° W 01:39:17 78° N 01:43:27 10° E
STARLINK-1215 3.3 01:37:03 10° W 01:39:59 38° SSW 01:42:55 10° SE
STARLINK-52 4.3 01:39:41 22° S 01:40:31 25° SE 01:43:14 10° E
STARLINK-1217 3.3 01:38:49 10° W 01:41:45 37° SSW 01:44:39 10° SE
STARLINK-1208 3.5 01:37:52 10° WNW 01:42:01 72° SSW 01:46:09 10° ESE
STARLINK-1229 3.3 01:39:44 10° W 01:42:40 37° SSW 01:45:35 10° SE
NPP 4.1 01:38:02 10° NNE 01:43:22 58° E 01:47:57 14° S
STARLINK-1270 3.4 01:40:36 10° W 01:43:31 36° SSW 01:46:26 10° SE
STARLINK-1225 3.7 01:40:08 10° W 01:44:17 79° N 01:48:27 10° E
Meteor 1-29 4.4 01:42:19 10° N 01:45:14 27° WNW 01:47:11 16° WSW
STARLINK-1189 3.4 01:42:27 10° W 01:45:21 35° SSW 01:48:14 10° SE
STARLINK-1188 3.4 01:43:20 10° W 01:46:14 35° SSW 01:49:07 10° SE
STARLINK-1235 3.7 01:44:06 10° W 01:46:51 29° SSW 01:49:35 10° SSE
STARLINK-1271 3.5 01:42:52 10° WNW 01:47:00 69° SSW 01:51:08 10° ESE
STARLINK-1187 3.5 01:44:29 10° W 01:47:17 31° SSW 01:50:05 10° SE
Cosmos 1898 Rocket 4.0 01:42:04 10° NNW 01:47:25 65° ENE 01:52:42 10° SE
Cosmos 2058 Rocket 4.2 01:44:45 10° NNW 01:48:36 30° W 01:51:01 18° SW
STARLINK-1191 3.5 01:45:50 10° W 01:48:41 33° SSW 01:51:31 10° SE
Lacrosse 4 Rocket 3.3 01:44:56 10° NNW 01:48:59 34° NE 01:52:55 10° ESE
STARLINK-1230 3.7 01:45:07 10° W 01:49:16 80° N 01:53:26 10° E
STARLINK-1221 3.5 01:46:42 10° W 01:49:32 33° SSW 01:52:23 10° SE
Starlink 7 placeholder 1.9 01:49:43 47° S 01:49:48 47° SSE 01:51:44 10° E
STARLINK-1222 3.5 01:47:36 10° W 01:50:27 33° SSW 01:53:16 10° SE
STARLINK-1214 3.5 01:48:31 10° W 01:51:20 32° SSW 01:54:09 10° SE
STARLINK-1154 3.5 01:47:51 10° WNW 01:51:59 66° SSW 01:56:06 10° ESE
SJ 16-02 1.5 01:48:36 10° NNW 01:53:04 76° ENE 01:57:30 10° SSE
STARLINK-1243 3.7 01:50:06 10° W 01:54:16 80° N 01:58:25 10° E
CZ-4C R/B 4.1 01:51:38 10° SSE 01:55:07 19° ESE 01:59:00 10° ENE
Cosmos 2084 4.2 01:52:18 18° SSW 01:55:16 44° SE 01:59:32 10° NE
SL-14 R/B 4.1 01:54:05 18° SW 01:56:29 37° WNW 02:00:07 10° N
SL-08 ROCKET BODY 4.4 01:52:04 16° SSW 01:56:50 79° W 02:02:44 10° N
STARLINK-1197 3.6 01:52:50 10° WNW 01:56:57 63° SSW 02:01:03 10° ESE
Cosmos 1937 Rocket 4.1 01:52:29 10° NNW 01:57:40 59° ENE 02:02:52 10° SE
Cosmos 1300 3.9 01:54:49 10° NNW 01:58:05 27° W 02:00:00 18° SW
STARLINK-1236 3.7 01:55:05 10° W 01:59:15 82° N 02:03:24 10° E
COSMOS 2455 3.2 01:54:47 13° SW 02:00:06 63° NW 02:06:07 10° NE
Meteor 2-10 Rocket 3.6 01:54:40 10° NNW 02:00:07 88° ENE 02:05:18 10° SSE
STARLINK-1198 3.6 01:57:47 10° WNW 02:01:53 60° SSW 02:05:58 10° SE
Cosmos 921 Rocket 3.1 02:00:21 18° SW 02:03:26 65° WNW 02:07:46 10° NNE
Cosmos 1174 4.4 02:03:36 14° WSW 02:06:16 44° NW 02:10:03 10° NNE
STARLINK-1199 3.6 02:02:48 10° WNW 02:06:53 57° SSW 02:10:57 10° SE
Cosmos 1709 Rocket 4.1 02:01:48 11° S 02:07:37 77° E 02:13:46 10° NNE
STARLINK-1269 3.7 02:05:02 10° W 02:09:12 84° N 02:13:22 10° E
Cosmos 1626 Rocket 3.8 02:06:42 17° SSW 02:09:56 57° WNW 02:14:14 10° N
STARLINK-60 2.9 02:08:51 16° WSW 02:11:17 66° SSE 02:14:30 10° ENE
Cosmos 1626 3.6 02:09:03 14° WSW 02:11:30 25° WNW 02:14:38 10° NNW
STARLINK-1210 3.7 02:07:47 10° WNW 02:11:50 54° SSW 02:15:53 10° SE
STARLINK-1200 3.6 02:10:02 10° W 02:14:12 86° N 02:18:22 10° E
Cosmos 2219 3.4 02:09:27 10° NW 02:14:58 52° WSW 02:20:24 10° S
STARLINK-1219 3.7 02:12:46 10° WNW 02:16:48 51° SSW 02:20:49 10° SE
STARLINK-1192 3.6 02:15:01 10° WNW 02:19:11 88° N 02:23:21 10° ESE
Cosmos 1980 Rocket 4.2 02:16:35 10° SSE 02:20:39 21° E 02:24:44 10° NE
STARLINK-1211 3.8 02:17:44 10° WNW 02:21:45 48° SSW 02:25:45 10° SE
Cosmos 1328 4.4 02:19:36 10° S 02:23:30 56° E 02:27:25 10° NNE
ERBS 3.6 02:20:51 10° WNW 02:24:04 43° NNE 02:27:17 10° E
STARLINK-1244 3.6 02:19:58 10° WNW 02:24:09 90° N 02:28:18 10° ESE
Cosmos 192 4.4 02:20:35 13° SSW 02:25:00 84° ESE 02:30:01 10° NNE
ERS-2 3.1 02:22:35 10° SE 02:26:08 49° ENE 02:29:43 10° N
Cosmos 220 Rocket 4.4 02:22:56 14° SW 02:26:39 57° WNW 02:31:03 10° NNE
STARLINK-1245 3.9 02:22:44 10° WNW 02:26:43 46° SSW 02:30:41 10° SE
Cosmos 1437 4.3 02:24:54 13° WSW 02:26:53 22° WNW 02:29:19 10° NNW
AQUA 3.9 02:22:53 10° NNE 02:27:40 77° WNW 02:32:11 11° SSW
Cosmos 1812 Rocket 4.3 02:23:37 10° NNW 02:27:47 38° W 02:31:37 12° SSW
STARLINK-1376 4.5 02:26:15 13° S 02:28:12 22° SE 02:30:43 10° E
STARLINK-1360 4.5 02:26:30 13° SSW 02:28:27 22° SE 02:30:58 10° E
STARLINK-1361 4.5 02:26:56 13° SSW 02:28:53 23° SE 02:31:25 10° E
STARLINK-1138 3.6 02:24:57 10° WNW 02:29:08 88° SSW 02:33:17 10° ESE
STARLINK-1367 4.5 02:27:10 13° SSW 02:29:10 23° SE 02:31:44 10° E
STARLINK-1366 4.5 02:27:33 13° SSW 02:29:32 23° SE 02:32:04 10° E
SL-4 R/B 2.4 02:25:01 10° WSW 02:29:49 70° SSE 02:34:27 10° E
CZ-4B R/B 3.6 02:25:03 10° NNE 02:30:10 73° WNW 02:35:12 11° SSW
Cosmos 2297 Rocket 2.4 02:25:03 10° NW 02:30:30 49° WSW 02:35:54 10° S
STARLINK-1233 3.9 02:27:43 10° WNW 02:31:40 43° SSW 02:35:36 10° SE
STARLINK-1203 3.6 02:27:46 10° WNW 02:32:00 87° SSW 02:36:13 10° ESE
STARLINK-1143 3.6 02:29:57 10° WNW 02:34:07 86° SSW 02:38:16 10° ESE
Cosmos 2082 3.7 02:28:35 10° NNW 02:34:17 81° WSW 02:39:55 10° SSE
Cosmos 990 Rocket 4.2 02:31:13 10° NNW 02:36:22 55° WSW 02:41:28 10° S
STARLINK-1204 4.0 02:32:44 10° W 02:36:38 41° SSW 02:40:32 10° SE
CBERS-1 4.1 02:31:53 10° NNE 02:37:02 89° WNW 02:42:10 10° SSW
ATLAS CENTAUR R/B 2.5 02:33:41 10° WSW 02:37:44 38° NW 02:41:32 10° NNE
FALCON 9 DEB 3.6 02:35:24 13° SW 02:38:18 46° SSE 02:41:39 10° E
STARLINK-1241 3.6 02:34:55 10° WNW 02:39:06 84° SSW 02:43:14 10° ESE
STARLINK-29 3.0 02:36:59 11° WSW 02:39:57 62° SSE 02:43:07 10° ENE
STARLINK-1352 4.5 02:37:40 12° SSW 02:40:25 28° SE 02:43:29 10° E
Cosmos 1455 2.7 02:37:03 10° NNW 02:40:35 39° W 02:44:05 10° SSW
STARLINK-1238 4.1 02:37:42 10° W 02:41:34 39° SSW 02:45:26 10° SE
STARLINK-1368 4.4 02:39:45 11° SSW 02:42:34 29° SE 02:45:41 10° E
Cosmos 1602 Rocket 4.4 02:39:06 11° SW 02:42:52 36° WNW 02:46:53 10° N
Cosmos 1825 Rocket 3.5 02:38:34 10° SSW 02:42:53 81° W 02:47:15 10° N
STARLINK-1239 3.6 02:39:54 10° WNW 02:44:03 81° SSW 02:48:13 10° ESE
STARLINK-1369 4.4 02:41:37 11° SSW 02:44:29 29° SSE 02:47:34 10° E
ATLAS CENTAUR R/B 2.9 02:42:28 10° W 02:45:12 27° SW 02:50:26 10° SSE
Meteor 1-28 Rocket 3.4 02:42:11 10° SSE 02:45:57 74° ENE 02:49:43 10° N
Cosmos 2263 Rocket 3.7 02:40:46 10° NNW 02:46:06 41° NE 02:51:23 10° ESE
SL-16 R/B 3.5 02:41:13 10° SSW 02:46:30 30° W 02:51:51 10° NNW
STARLINK-1201 4.1 02:42:43 10° W 02:46:32 36° SSW 02:50:21 10° SE
STARLINK-1372 4.3 02:43:58 11° SSW 02:46:56 31° SSE 02:50:06 10° E
Cosmos 372 Rocket 4.4 02:42:55 10° NNW 02:48:03 69° ENE 02:53:10 10° SSE
GP-B 3.5 02:44:35 10° N 02:48:54 49° W 02:53:10 10° SSW
Cosmos 2074 Rocket 4.4 02:42:45 10° S 02:48:59 66° E 02:55:14 10° NNE
STARLINK-1240 3.6 02:44:54 10° WNW 02:49:03 78° SSW 02:53:12 10° ESE
STARLINK-1378 4.3 02:46:05 11° SSW 02:49:09 32° SSE 02:52:20 10° E
STARLINK-1329 4.3 02:46:35 11° SSW 02:49:40 32° SSE 02:52:52 10° E
IRS-1D 3.7 02:44:34 10° NNE 02:49:57 73° WNW 02:55:12 10° SSW
STARLINK-1365 4.2 02:47:17 11° SSW 02:50:23 33° SSE 02:53:36 10° E
Cosmos 841 Rocket 4.3 02:45:50 10° S 02:50:52 49° ESE 02:55:54 10° NE
STARLINK-1379 4.2 02:48:13 10° SSW 02:51:21 33° SSE 02:54:35 10° E
STARLINK-1206 4.2 02:47:43 10° W 02:51:29 34° SW 02:55:15 10° SSE
STARLINK-1362 4.2 02:48:47 10° SSW 02:51:57 33° SSE 02:55:11 10° E
Cosmos-2242 3.4 02:48:03 10° NNW 02:52:09 46° W 02:56:12 10° SSW
Cosmos 1400 Rocket 2.9 02:49:13 10° NNW 02:53:21 89° W 02:57:29 10° S
ATLAS 5 CENTAUR R/B 3.6 02:52:16 10° NW 02:53:31 14° N 02:54:56 10° NE
STARLINK-1216 3.6 02:49:52 10° WNW 02:54:01 76° SSW 02:58:09 10° ESE
Cosmos 2221 3.6 02:49:54 10° N 02:54:06 47° ENE 02:58:17 10° SSE
STARLINK-1373 4.2 02:51:00 10° SW 02:54:14 34° SSE 02:57:30 10° E
ATLAS 3B R/B 4.2 02:51:14 10° WNW 02:54:57 15° WSW 02:58:43 10° SW
COBE Rocket 4.0 02:51:06 10° SSE 02:56:03 86° WSW 03:01:11 10° NNW
STARLINK-1390 4.2 02:53:02 10° SW 02:56:17 35° SSE 02:59:33 10° E
STARLINK-1205 4.3 02:52:43 10° W 02:56:26 32° SW 03:00:08 10° SSE
STARLINK-1237 3.6 02:54:51 10° WNW 02:59:00 73° SSW 03:03:08 10° ESE
RESURS DK-1 3.8 02:56:01 10° WSW 02:59:40 29° NW 03:03:20 10° NNE
Cosmos 2184 Rocket 4.2 02:54:19 10° S 03:00:29 76° E 03:06:39 10° NNE
STARLINK-1218 4.4 02:57:43 10° W 03:01:22 30° SW 03:05:01 10° SSE
SL-08 R/B 3.5 02:56:58 10° S 03:01:35 55° W 03:06:09 10° NNW
CZ-4C R/B 3.4 02:58:18 10° SSE 03:01:54 72° ENE 03:05:33 10° N
STARLINK-1202 3.6 02:59:51 10° WNW 03:03:59 70° SSW 03:08:06 10° ESE
IRS-P3 4.2 03:00:12 10° NNE 03:05:33 75° WNW 03:10:52 10° SSW
Cosmos 2227 Rocket 3.0 03:00:54 10° NW 03:05:53 32° WSW 03:10:50 10° SSW
CZ-2D R/B 3.2 03:01:23 10° N 03:06:03 33° WNW 03:10:40 10° WSW
STARLINK-1254 4.5 03:02:44 10° W 03:06:20 28° SW 03:09:54 10° SSE
Cosmos 1703 3.7 03:02:41 10° SSW 03:06:32 48° WNW 03:10:23 10° N
Cosmos 2181 Rocket 4.5 03:00:31 10° NNW 03:06:35 47° W 03:12:41 10° SSW
ADEOS II 2.2 03:03:26 10° N 03:08:40 66° WNW 03:13:52 10° SSW
Cosmos 1763 Rocket 3.5 03:04:27 10° SSW 03:09:34 74° WNW 03:14:41 10° NNE
Cosmos 2150 Rocket 4.2 03:04:51 10° NNW 03:10:06 79° ENE 03:15:16 10° SSE
Cosmos 1697 Rocket 2.9 03:05:59 10° SSW 03:11:38 78° ESE 03:17:21 10° NNE
